Home > Weather > Dickinson > Past weeks

Flag for U.S.A. Weather for the Past 2 Weeks in Dickinson, North Dakota, U.S.A.

Now
10 °F

Overcast.


Feels Like: -6 °F
Forecast: 13 / 33 °F
Wind: 14 mph from Southeast

Location: Dickinson Municipal Airport

Current Time: Feb 12, 2016 at 5:31:37 PM

Latest Report: Feb 12, 2016 at 4:56 PM


Visibility: 10 mi

Pressure: 30.55 "Hg (27.75 "Hg at 735m altitude)

Humidity: 67%

Dew point: 1 °F

Location of DickinsonLocation

Historic Weather in Dickinson — Graph

°F

Dickinson Temperature Yesterday

Maximum temperature yesterday: 25 °F (at 12:56 AM)
Minimum temperature yesterday: 20 °F (at 11:56 PM)
Average temperature yesterday: 23 °F

High & Low Weather Summary for the Past Weeks

 TemperatureHumidityPressure
High52 °F (Feb 6, 1:56 PM)96% (Jan 30, 8:56 AM)30.62 "Hg (Jan 30, 8:56 AM)
Low6 °F (Feb 12, 7:56 AM)28% (Feb 6, 1:56 PM)29.46 "Hg (Jan 30, 8:04 AM)
Average28 °F75%30.02 "Hg
* Reported Jan 28 3:56 PM — Feb 12 3:56 PM, Dickinson, Weather by CustomWeather, © 2016

Note: Actual official high and low records may vary slightly from our data, if they occured in-between our weather recording intervals... More about our weather records

Advertising

Dickinson Weather History for the Previous 24 Hours

 ConditionsComfort  
Time TempWeatherWind HumidityBarometerVisibility
3:56 PM
Fri, Feb 12
11 °FOvercast.12 mph61%30.56 "Hg10 mi
2:56 PM11 °FOvercast.9 mph59%30.56 "Hg10 mi
1:56 PM11 °FOvercast.8 mph59%30.58 "Hg10 mi
12:56 PM11 °FSunny.9 mph56%30.59 "Hg10 mi
11:56 AM10 °FPassing clouds.9 mph55%30.60 "Hg10 mi
10:56 AM9 °FOvercast.8 mph61%30.62 "Hg10 mi
10:04 AM7 °FOvercast.10 mph60%30.47 "Hg10 mi
9:56 AM7 °FMostly cloudy.9 mph63%30.62 "Hg10 mi
8:56 AM6 °FOvercast.10 mph63%30.62 "Hg10 mi
7:56 AM6 °FLight snow. Overcast.12 mph79%30.60 "Hg4 mi
6:56 AM9 °FLight snow. Ice fog.13 mph84%30.56 "Hg6 mi
5:56 AM11 °FOvercast.13 mph84%30.54 "Hg10 mi
4:56 AM16 °FOvercast.8 mph80%30.50 "Hg10 mi
3:56 AM17 °FOvercast.10 mph80%30.47 "Hg10 mi
2:56 AM18 °FOvercast.9 mph77%30.45 "Hg10 mi
1:56 AM18 °FOvercast.8 mph80%30.42 "Hg10 mi
12:56 AM19 °FMostly cloudy.8 mph85%30.40 "Hg10 mi
11:56 PM
Thu, Feb 11
20 °FMostly cloudy.7 mph89%30.38 "Hg10 mi
10:56 PM21 °FOvercast.7 mph85%30.36 "Hg10 mi
9:56 PM21 °FLow clouds.6 mph85%30.35 "Hg10 mi
8:56 PM22 °FOvercast.10 mph85%30.34 "Hg10 mi
7:56 PM23 °FOvercast.7 mph85%30.32 "Hg10 mi
6:56 PM23 °FOvercast.3 mph81%30.30 "Hg10 mi
5:56 PM22 °FOvercast.No wind85%30.29 "Hg10 mi
Weather by CustomWeather, © 2016

See weather overviewHow to use our weather pages